Latest Weather Observations for Busselton Jetty

IDW60801

Issued at 6:02 am WST Monday 31 August 2015 (issued every 30 minutes, with the page automatically refreshed every 10 minutes)

About weather observations | Map of weather stations | Latest weather observations for WA | Other Formats
Station Details ID: 009937 Name: BUSSELTON JETTY Lat: -33.63 Lon: 115.34 Height: 3.0 m
Data from the previous 72 hours. | See also: Recent months at Busselton Jetty
Date/Time
WST
Temp
°C
App
Temp
°C
Dew
Point
Rel
Hum
%
Delta-T
°C
Wind Press
QNH
hPa
Press
MSL
hPa
Rain
since 9 am
mm
Dir
 
Spd
km/h
Gust
km/h
Spd
kts
Gust
kts
31/06:00am - - - - - NNW 17 22 9 12 - - -
31/05:30am - - - - - NW 35 46 19 25 - - -
31/05:00am - - - - - NW 32 35 17 19 - - -
31/04:45am - - - - - WNW 24 32 13 17 - - -
31/04:30am - - - - - WSW 9 13 5 7 - - -
31/04:00am - - - - - WNW 33 48 18 26 - - -
31/03:58am - - - - - NW 33 48 18 26 - - -
31/03:55am - - - - - NNW 32 48 17 26 - - -
31/03:30am - - - - - NW 22 30 12 16 - - -
31/03:00am - - - - - NNE 9 15 5 8 - - -
31/02:30am - - - - - NE 13 24 7 13 - - -
31/02:00am - - - - - E 20 28 11 15 - - -
31/01:30am - - - - - NNE 11 15 6 8 - - -
31/01:00am - - - - - NNE 11 15 6 8 - - -
31/12:30am - - - - - E 2 7 1 4 - - -
31/12:00am - - - - - SE 7 9 4 5 - - -
 
Date/Time
WST
Temp
°C
App
Temp
°C
Dew
Point
Rel
Hum
%
Delta-T
°C
Wind Press
QNH
hPa
Press
MSL
hPa
Rain
since 9 am
mm
Dir
 
Spd
km/h
Gust
km/h
Spd
kts
Gust
kts
30/11:30pm - - - - - SE 6 7 3 4 - - -
30/11:00pm - - - - - WNW 9 13 5 7 - - -
30/10:30pm - - - - - SSW 9 11 5 6 - - -
30/10:00pm - - - - - SSW 6 7 3 4 - - -
30/09:30pm - - - - - SW 7 9 4 5 - - -
30/09:00pm - - - - - WSW 15 17 8 9 - - -
30/08:30pm - - - - - W 26 30 14 16 - - -
30/08:00pm - - - - - WSW 11 13 6 7 - - -
30/07:30pm - - - - - WSW 15 19 8 10 - - -
30/07:00pm - - - - - SW 15 17 8 9 - - -
30/06:30pm - - - - - W 17 20 9 11 - - -
30/06:00pm - - - - - W 17 19 9 10 - - -
30/05:30pm - - - - - W 17 19 9 10 - - -
30/05:00pm - - - - - W 17 20 9 11 - - -
30/04:30pm - - - - - WNW 15 19 8 10 - - -
30/04:00pm - - - - - WNW 19 24 10 13 - - -
30/03:30pm - - - - - WSW 17 24 9 13 - - -
30/03:00pm - - - - - W 20 28 11 15 - - -
30/02:30pm - - - - - W 20 28 11 15 - - -
30/02:00pm - - - - - W 24 30 13 16 - - -
30/01:30pm - - - - - W 22 28 12 15 - - -
30/01:00pm - - - - - W 22 33 12 18 - - -
30/12:30pm - - - - - W 22 30 12 16 - - -
30/12:00pm - - - - - W 24 32 13 17 - - -
30/11:30am - - - - - W 19 32 10 17 - - -
30/11:00am - - - - - W 28 37 15 20 - - -
30/10:30am - - - - - WSW 17 24 9 13 - - -
30/10:00am - - - - - SW 19 30 10 16 - - -
30/09:30am - - - - - SW 19 26 10 14 - - -
30/09:00am - - - - - WSW 15 19 8 10 - - -
30/08:30am - - - - - WSW 11 17 6 9 - - -
30/08:00am - - - - - WSW 13 17 7 9 - - -
30/07:30am - - - - - WSW 17 22 9 12 - - -
30/07:00am - - - - - WSW 13 19 7 10 - - -
30/06:30am - - - - - WSW 13 17 7 9 - - -
30/06:00am - - - - - SW 9 13 5 7 - - -
30/05:30am - - - - - W 19 22 10 12 - - -
30/05:00am - - - - - W 20 26 11 14 - - -
30/04:30am - - - - - W 15 19 8 10 - - -
30/04:00am - - - - - W 20 28 11 15 - - -
30/03:30am - - - - - W 24 30 13 16 - - -
30/03:00am - - - - - W 20 26 11 14 - - -
30/02:30am - - - - - W 26 39 14 21 - - -
30/02:00am - - - - - W 33 43 18 23 - - -
30/01:30am - - - - - W 37 48 20 26 - - -
30/01:08am - - - - - WNW 33 54 18 29 - - -
30/01:00am - - - - - WNW 32 39 17 21 - - -
30/12:30am - - - - - WNW 30 35 16 19 - - -
30/12:00am - - - - - WNW 28 35 15 19 - - -
 
Date/Time
WST
Temp
°C
App
Temp
°C
Dew
Point
Rel
Hum
%
Delta-T
°C
Wind Press
QNH
hPa
Press
MSL
hPa
Rain
since 9 am
mm
Dir
 
Spd
km/h
Gust
km/h
Spd
kts
Gust
kts
29/11:30pm - - - - - WNW 20 26 11 14 - - -
29/11:00pm - - - - - WNW 30 35 16 19 - - -
29/10:30pm - - - - - WNW 32 41 17 22 - - -
29/10:10pm - - - - - WNW 35 43 19 23 - - -
29/10:00pm - - - - - NW 30 35 16 19 - - -
29/09:30pm - - - - - NNW 24 28 13 15 - - -
29/09:00pm - - - - - NNW 22 28 12 15 - - -
29/08:30pm - - - - - NNW 17 19 9 10 - - -
29/08:00pm - - - - - NW 17 20 9 11 - - -
29/07:30pm - - - - - NW 15 19 8 10 - - -
29/07:00pm - - - - - WNW 17 24 9 13 - - -
29/06:30pm - - - - - WNW 24 28 13 15 - - -
29/06:00pm - - - - - WNW 24 28 13 15 - - -
29/05:30pm - - - - - WNW 24 30 13 16 - - -
29/05:00pm - - - - - NW 20 26 11 14 - - -
29/04:30pm - - - - - WNW 28 32 15 17 - - -
29/04:00pm - - - - - WNW 24 28 13 15 - - -
29/03:30pm - - - - - WNW 28 33 15 18 - - -
29/03:00pm - - - - - NW 32 37 17 20 - - -
29/02:30pm - - - - - WNW 33 39 18 21 - - -
29/02:00pm - - - - - WNW 32 39 17 21 - - -
29/01:30pm - - - - - WNW 35 43 19 23 - - -
29/01:00pm - - - - - NNW 48 63 26 34 - - -
29/12:47pm - - - - - NW 48 59 26 32 - - -
29/12:36pm - - - - - N 65 80 35 43 - - -
29/12:30pm - - - - - N 61 80 33 43 - - -
29/12:00pm - - - - - NNE 48 70 26 38 - - -
29/11:55am - - - - - NE 46 70 25 38 - - -
29/11:45am - - - - - NNE 32 61 17 33 - - -
29/11:30am - - - - - NNE 44 59 24 32 - - -
29/11:12am - - - - - NNE 48 67 26 36 - - -
29/11:00am - - - - - NE 44 54 24 29 - - -
29/10:36am - - - - - NE 33 52 18 28 - - -
29/10:30am - - - - - NE 32 39 17 21 - - -
29/10:00am - - - - - NNE 22 28 12 15 - - -
29/09:30am - - - - - N 33 37 18 20 - - -
29/09:00am - - - - - NNE 32 37 17 20 - - -
29/08:30am - - - - - NNE 28 32 15 17 - - -
29/08:00am - - - - - NNE 30 33 16 18 - - -
29/07:30am - - - - - NNE 26 30 14 16 - - -
29/07:00am - - - - - NNE 20 24 11 13 - - -
29/06:30am - - - - - N 19 20 10 11 - - -
29/06:00am - - - - - N 17 19 9 10 - - -
29/05:30am - - - - - N 19 22 10 12 - - -
29/05:00am - - - - - N 22 26 12 14 - - -
29/04:30am - - - - - N 26 30 14 16 - - -
29/04:00am - - - - - N 26 28 14 15 - - -
29/03:30am - - - - - N 24 26 13 14 - - -
29/03:00am - - - - - N 20 26 11 14 - - -
29/02:30am - - - - - ENE 17 22 9 12 - - -
29/02:00am - - - - - ENE 22 28 12 15 - - -
29/01:30am - - - - - ENE 19 22 10 12 - - -
29/01:00am - - - - - ENE 20 24 11 13 - - -
29/12:30am - - - - - ENE 20 26 11 14 - - -
29/12:00am - - - - - ENE 19 20 10 11 - - -
 
Date/Time
WST
Temp
°C
App
Temp
°C
Dew
Point
Rel
Hum
%
Delta-T
°C
Wind Press
QNH
hPa
Press
MSL
hPa
Rain
since 9 am
mm
Dir
 
Spd
km/h
Gust
km/h
Spd
kts
Gust
kts
28/11:30pm - - - - - ENE 20 26 11 14 - - -
28/11:00pm - - - - - ENE 19 20 10 11 - - -
28/10:30pm - - - - - ENE 17 19 9 10 - - -
28/10:00pm - - - - - NE 11 15 6 8 - - -
28/09:30pm - - - - - NE 11 13 6 7 - - -
28/09:00pm - - - - - NE 9 11 5 6 - - -
28/08:30pm - - - - - NNE 9 9 5 5 - - -
28/08:00pm - - - - - NNE 7 9 4 5 - - -
28/07:30pm - - - - - NNE 6 7 3 4 - - -
28/07:00pm - - - - - NNW 11 13 6 7 - - -
28/06:30pm - - - - - N 13 15 7 8 - - -
28/06:00pm - - - - - N 11 11 6 6 - - -
28/05:30pm - - - - - N 13 15 7 8 - - -
28/05:00pm - - - - - N 15 17 8 9 - - -
28/04:30pm - - - - - N 17 19 9 10 - - -
28/04:00pm - - - - - N 19 20 10 11 - - -
28/03:30pm - - - - - NNW 19 20 10 11 - - -
28/03:00pm - - - - - NNW 17 19 9 10 - - -
28/02:30pm - - - - - NNW 19 22 10 12 - - -
28/02:00pm - - - - - NNW 19 24 10 13 - - -
28/01:30pm - - - - - NNW 22 26 12 14 - - -
28/01:00pm - - - - - NNW 22 28 12 15 - - -
28/12:30pm - - - - - NNW 20 24 11 13 - - -
28/12:00pm - - - - - NNW 22 26 12 14 - - -
28/11:30am - - - - - NNW 22 28 12 15 - - -
28/11:00am - - - - - NW 19 20 10 11 - - -
28/10:30am - - - - - NNW 15 17 8 9 - - -
28/10:00am - - - - - NW 17 19 9 10 - - -
28/09:30am - - - - - NNW 17 19 9 10 - - -
28/09:00am - - - - - NNW 13 15 7 8 - - -
28/08:30am - - - - - NNW 15 17 8 9 - - -
28/08:00am - - - - - NW 15 17 8 9 - - -
28/07:30am - - - - - NW 15 17 8 9 - - -
28/07:00am - - - - - NW 17 19 9 10 - - -
28/06:30am - - - - - NNW 20 22 11 12 - - -

Other Formats:

Comma delimited format used in spreadsheet applications
http://www.bom.gov.au/fwo/IDW60801/IDW60801.95602.axf

JavaScript Object Notation format (JSON) in row-major order
http://www.bom.gov.au/fwo/IDW60801/IDW60801.95602.json